sat.trackr.live / text

‹ back to catalog

STARLINK-37228

NORAD 68570 · 2026-070AE

PAYLOAD ACTIVE UNKNOWN

§ Identity

Operator
Country
US
Launch date
2026-04-02
Launch site
AFETR
Launch vehicle
Mass (kg)
RCS (m²)

Purposes: comms

External: N2YO · Heavens-Above · Gunter

§ Orbital elements

Epoch: 2026-05-24T21:23:10.155264Z

Period
93.85 min
Inclination
53.1614°
Eccentricity
0.0000697
Mean motion
15.34411237 rev/d
Perigee alt
462.2 km
Apogee alt
463.1 km
Semi-major
6,840.8 km
B*
6.1696e-4
RAAN
8.4961°
Arg perigee
85.4028°
Mean anomaly
274.7055°
Rev number
822

§ Raw data

STARLINK-372281 68570U 26070AE  26144.89108976  .00020533  00000+0  61696-3 0  99992 68570  53.1614   8.4961 0000697  85.4028 274.7055 15.34411237  8228

JSON: /api/v1/satellites/68570 · /tle

For live sub-satellite position, see the globe view (requires WebGL).

§ Visibility from observer

Set your observer location to see the next 7 days of passes ≥ 10°. The values pass through the URL so the page stays shareable.

No JS? Fill the form by hand. The geolocation button needs JavaScript.